| time (UTC) | temp F | wind direction | speed knots | gust knots | rain 1hr in | rain 24hr in | rain mn in | humidity % | barometer mb |
| 20260510091011 | 45 | 96 | 1.7 | 1.7 | 0.00 | 0.00 | 0.00 | 71 | 1020.3 |
| 20260510090509 | 45 | 105 | 1.7 | 2.6 | 0.00 | 0.00 | 0.00 | 71 | 1020.6 |
| 20260510090004 | 45 | 77 | 1.7 | 2.6 | 0.00 | 0.00 | 0.00 | 71 | 1020.5 |
| 20260510085459 | 45 | 123 | 0.9 | 1.7 | 0.00 | 0.00 | 0.00 | 70 | 1020.5 |
| 20260510084955 | 46 | 144 | 0.0 | 1.7 | 0.00 | 0.00 | 0.00 | 69 | 1020.6 |
| 20260510084452 | 46 | 99 | 2.6 | 3.5 | 0.00 | 0.00 | 0.00 | 69 | 1020.3 |
| 20260510083949 | 46 | 83 | 2.6 | 2.6 | 0.00 | 0.00 | 0.00 | 70 | 1020.3 |
| 20260510083445 | 46 | 109 | 1.7 | 2.6 | 0.00 | 0.00 | 0.00 | 70 | 1020.2 |
| 20260510082940 | 48 | 157 | 0.0 | 2.6 | 0.00 | 0.00 | 0.00 | 67 | 1020.6 |
| 20260510082439 | 47 | 250 | 2.6 | 3.5 | 0.00 | 0.00 | 0.00 | 68 | 1020.8 |
| 20260510081938 | 47 | 199 | 2.6 | 4.3 | 0.00 | 0.00 | 0.00 | 67 | 1020.6 |
| 20260510081434 | 48 | 110 | 3.5 | 5.2 | 0.00 | 0.00 | 0.00 | 65 | 1020.2 |
| 20260510080930 | 48 | 114 | 2.6 | 7.8 | 0.00 | 0.00 | 0.00 | 64 | 1020.6 |
| 20260510080429 | 48 | 117 | 3.5 | 7.0 | 0.00 | 0.00 | 0.00 | 65 | 1020.6 |
| 20260510075926 | 47 | 126 | 3.5 | 5.2 | 0.00 | 0.00 | 0.00 | 66 | 1020.6 |
| 20260510075424 | 48 | 109 | 5.2 | 6.1 | 0.00 | 0.00 | 0.00 | 65 | 1020.6 |
| 20260510074920 | 47 | 118 | 6.1 | 6.1 | 0.00 | 0.00 | 0.00 | 66 | 1020.7 |
| 20260510074418 | 48 | 95 | 2.6 | 3.5 | 0.00 | 0.00 | 0.00 | 66 | 1020.6 |
| 20260510073914 | 48 | 107 | 2.6 | 3.5 | 0.00 | 0.00 | 0.00 | 66 | 1020.7 |
| 20260510073409 | 48 | 99 | 2.6 | 4.3 | 0.00 | 0.00 | 0.00 | 65 | 1020.5 |
| 20260510072906 | 49 | 97 | 2.6 | 2.6 | 0.00 | 0.00 | 0.00 | 64 | 1020.6 |
| 20260510072403 | 47 | 147 | 1.7 | 2.6 | 0.00 | 0.00 | 0.00 | 66 | 1020.8 |
| 20260510071858 | 48 | 110 | 1.7 | 2.6 | 0.00 | 0.00 | 0.00 | 65 | 1020.6 |
| 20260510071355 | 48 | 126 | 0.0 | 0.9 | 0.00 | 0.00 | 0.00 | 65 | 1020.6 |
| 20260510070854 | 49 | 114 | 0.9 | 2.6 | 0.00 | 0.00 | 0.00 | 64 | 1020.5 |
| 20260510070350 | 48 | 157 | 0.0 | 0.9 | 0.00 | 0.00 | 0.00 | 64 | 1020.5 |
| 20260510065850 | 48 | 144 | 1.7 | 2.6 | 0.00 | 0.00 | 0.00 | 64 | 1020.2 |
| 20260510065347 | 48 | 105 | 2.6 | 3.5 | 0.00 | 0.00 | 0.00 | 64 | 1020.2 |
| 20260510064844 | 49 | 112 | 1.7 | 2.6 | 0.00 | 0.00 | 0.00 | 64 | 1020.3 |
| 20260510064342 | 48 | 102 | 2.6 | 3.5 | 0.00 | 0.00 | 0.00 | 65 | 1020.2 |
| 20260510063838 | 49 | 121 | 2.6 | 2.6 | 0.00 | 0.00 | 0.00 | 62 | 1020.3 |
| 20260510063334 | 51 | 117 | 4.3 | 4.3 | 0.00 | 0.00 | 0.00 | 59 | 1020.6 |
| 20260510062831 | 50 | 101 | 2.6 | 3.5 | 0.00 | 0.00 | 0.00 | 61 | 1020.5 |
| 20260510062327 | 50 | 103 | 2.6 | 3.5 | 0.00 | 0.00 | 0.00 | 60 | 1020.3 |
| 20260510061822 | 49 | 101 | 1.7 | 3.5 | 0.00 | 0.00 | 0.00 | 62 | 1020.5 |
| 20260510061319 | 49 | 116 | 3.5 | 4.3 | 0.00 | 0.00 | 0.00 | 63 | 1020.2 |
| 20260510060815 | 50 | 113 | 1.7 | 4.3 | 0.00 | 0.00 | 0.00 | 62 | 1020.3 |
| 20260510060313 | 51 | 114 | 3.5 | 7.0 | 0.00 | 0.00 | 0.00 | 60 | 1020.2 |
| 20260510055809 | 51 | 108 | 5.2 | 5.2 | 0.00 | 0.00 | 0.00 | 59 | 1020.5 |
| 20260510055308 | 51 | 107 | 2.6 | 7.8 | 0.00 | 0.00 | 0.00 | 58 | 1020.3 |
| 20260510054807 | 52 | 93 | 2.6 | 5.2 | 0.00 | 0.00 | 0.00 | 58 | 1020.5 |
| 20260510054303 | 51 | 106 | 3.5 | 4.3 | 0.00 | 0.00 | 0.00 | 59 | 1020.1 |
| 20260510053758 | 51 | 108 | 2.6 | 3.5 | 0.00 | 0.00 | 0.00 | 60 | 1020.2 |
| 20260510053254 | 50 | 95 | 2.6 | 3.5 | 0.00 | 0.00 | 0.00 | 60 | 1020.3 |
| 20260510052750 | 50 | 112 | 2.6 | 2.6 | 0.00 | 0.00 | 0.00 | 61 | 1020.2 |
| 20260510052246 | 51 | 101 | 2.6 | 4.3 | 0.00 | 0.00 | 0.00 | 59 | 1020.0 |
| 20260510051742 | 51 | 101 | 1.7 | 3.5 | 0.00 | 0.00 | 0.00 | 60 | 1019.9 |
| 20260510051239 | 51 | 121 | 1.7 | 2.6 | 0.00 | 0.00 | 0.00 | 59 | 1020.0 |
| 20260510050736 | 52 | 101 | 4.3 | 4.3 | 0.00 | 0.00 | 0.00 | 58 | 1020.0 |
| 20260510050233 | 52 | 114 | 3.5 | 6.1 | 0.00 | 0.00 | 0.00 | 56 | 1020.0 |
| 20260510045730 | 52 | 83 | 3.5 | 4.3 | 0.00 | 0.00 | 0.00 | 56 | 1020.0 |
| 20260510045226 | 53 | 104 | 2.6 | 4.3 | 0.00 | 0.00 | 0.00 | 54 | 1019.8 |
| 20260510044723 | 54 | 99 | 2.6 | 4.3 | 0.00 | 0.00 | 0.00 | 51 | 1019.9 |
| 20260510044221 | 54 | 85 | 3.5 | 6.1 | 0.00 | 0.00 | 0.00 | 51 | 1019.9 |
| 20260510043715 | 54 | 107 | 3.5 | 4.3 | 0.00 | 0.00 | 0.00 | 53 | 1019.7 |
| 20260510043213 | 55 | 119 | 3.5 | 6.1 | 0.00 | 0.00 | 0.00 | 50 | 1019.7 |
| 20260510042710 | 55 | 103 | 4.3 | 8.7 | 0.00 | 0.00 | 0.00 | 50 | 1019.9 |
| 20260510042206 | 55 | 104 | 4.3 | 7.0 | 0.00 | 0.00 | 0.00 | 52 | 1019.8 |
| 20260510041703 | 55 | 95 | 5.2 | 6.1 | 0.00 | 0.00 | 0.00 | 52 | 1019.8 |
| 20260510041201 | 55 | 120 | 3.5 | 6.1 | 0.00 | 0.00 | 0.00 | 52 | 1019.6 |
| 20260510040657 | 55 | 119 | 4.3 | 6.1 | 0.00 | 0.00 | 0.00 | 52 | 1019.6 |
| 20260510040154 | 55 | 114 | 5.2 | 7.8 | 0.00 | 0.00 | 0.00 | 51 | 1019.5 |
| 20260510035649 | 55 | 118 | 8.7 | 8.7 | 0.00 | 0.00 | 0.00 | 51 | 1019.1 |
| 20260510035145 | 56 | 109 | 4.3 | 6.1 | 0.00 | 0.00 | 0.00 | 49 | 1019.3 |
| 20260510034642 | 57 | 90 | 4.3 | 6.1 | 0.00 | 0.00 | 0.00 | 49 | 1019.3 |
| 20260510034139 | 57 | 100 | 2.6 | 6.1 | 0.00 | 0.00 | 0.00 | 48 | 1019.2 |
| 20260510033635 | 57 | 95 | 2.6 | 7.8 | 0.00 | 0.00 | 0.00 | 48 | 1019.0 |
| 20260510033133 | 57 | 110 | 3.5 | 7.0 | 0.00 | 0.00 | 0.00 | 49 | 1018.9 |
| 20260510032629 | 57 | 105 | 5.2 | 8.7 | 0.00 | 0.00 | 0.00 | 48 | 1018.9 |
| 20260510032125 | 58 | 112 | 3.5 | 9.6 | 0.00 | 0.00 | 0.00 | 47 | 1019.2 |
| 20260510031620 | 58 | 80 | 2.6 | 7.8 | 0.00 | 0.00 | 0.00 | 47 | 1018.9 |
| 20260510031117 | 59 | 99 | 4.3 | 7.8 | 0.00 | 0.00 | 0.00 | 47 | 1018.9 |
| 20260510030611 | 60 | 112 | 3.5 | 7.0 | 0.00 | 0.00 | 0.00 | 45 | 1019.0 |
| 20260510030109 | 60 | 121 | 2.6 | 5.2 | 0.00 | 0.00 | 0.00 | 46 | 1018.8 |
| 20260510025606 | 60 | 110 | 4.3 | 7.0 | 0.00 | 0.00 | 0.00 | 46 | 1018.9 |
| 20260510025104 | 60 | 109 | 1.7 | 4.3 | 0.00 | 0.00 | 0.00 | 45 | 1018.8 |
| 20260510024600 | 61 | 99 | 2.6 | 5.2 | 0.00 | 0.00 | 0.00 | 44 | 1018.8 |
| 20260510024056 | 62 | 121 | 2.6 | 4.3 | 0.00 | 0.00 | 0.00 | 43 | 1018.7 |
| 20260510023553 | 62 | 144 | 1.7 | 4.3 | 0.00 | 0.00 | 0.00 | 42 | 1018.8 |
| 20260510023050 | 63 | 106 | 1.7 | 2.6 | 0.00 | 0.00 | 0.00 | 42 | 1018.5 |
| 20260510022549 | 63 | 106 | 2.6 | 2.6 | 0.00 | 0.00 | 0.00 | 41 | 1018.6 |
| 20260510022044 | 64 | 114 | 0.9 | 0.9 | 0.00 | 0.00 | 0.00 | 40 | 1018.6 |
| 20260510021541 | 66 | 198 | 0.0 | 0.0 | 0.00 | 0.00 | 0.00 | 40 | 1018.3 |
| 20260510021038 | 67 | 195 | 0.0 | 2.6 | 0.00 | 0.00 | 0.00 | 36 | 1018.7 |
| 20260510020532 | 68 | 251 | 0.0 | 2.6 | 0.00 | 0.00 | 0.00 | 33 | 1018.3 |
| 20260510020028 | 69 | 270 | 0.9 | 2.6 | 0.00 | 0.00 | 0.00 | 32 | 1018.7 |
| 20260510015524 | 68 | 290 | 1.7 | 2.6 | 0.00 | 0.00 | 0.00 | 31 | 1018.5 |
| 20260510015020 | 69 | 278 | 2.6 | 2.6 | 0.00 | 0.00 | 0.00 | 31 | 1018.3 |
| 20260510014517 | 69 | 278 | 0.0 | 2.6 | 0.00 | 0.00 | 0.00 | 31 | 1018.3 |
| 20260510014014 | 69 | 270 | 1.7 | 3.5 | 0.00 | 0.00 | 0.00 | 31 | 1018.5 |
| 20260510013508 | 71 | 247 | 1.7 | 2.6 | 0.00 | 0.00 | 0.00 | 30 | 1018.5 |
| 20260510013005 | 70 | 279 | 0.0 | 1.7 | 0.00 | 0.00 | 0.00 | 29 | 1018.1 |
| 20260510012459 | 70 | 252 | 1.7 | 3.5 | 0.00 | 0.00 | 0.00 | 30 | 1018.2 |
| 20260510011954 | 71 | 8 | 0.0 | 0.9 | 0.00 | 0.00 | 0.00 | 28 | 1018.2 |
| 20260510011449 | 72 | 315 | 1.7 | 1.7 | 0.00 | 0.00 | 0.00 | 28 | 1018.5 |
| 20260510010946 | 71 | 123 | 1.7 | 3.5 | 0.00 | 0.00 | 0.00 | 28 | 1018.2 |
| 20260510010443 | 72 | 7 | 0.9 | 2.6 | 0.00 | 0.00 | 0.00 | 30 | 1018.5 |
| 20260510005940 | 71 | 315 | 2.6 | 2.6 | 0.00 | 0.00 | 0.00 | 29 | 1018.0 |
| 20260510005436 | 70 | 245 | 5.2 | 5.2 | 0.00 | 0.00 | 0.00 | 30 | 1018.5 |
| 20260510004933 | 71 | 246 | 2.6 | 2.6 | 0.00 | 0.00 | 0.00 | 29 | 1018.1 |
| 20260510004430 | 71 | 274 | 2.6 | 4.3 | 0.00 | 0.00 | 0.00 | 29 | 1018.3 |
| 20260510003929 | 71 | 254 | 2.6 | 4.3 | 0.00 | 0.00 | 0.00 | 29 | 1018.3 |
| 20260510003425 | 72 | 258 | 1.7 | 4.3 | 0.00 | 0.00 | 0.00 | 29 | 1018.1 |
| 20260510002924 | 72 | 236 | 2.6 | 3.5 | 0.00 | 0.00 | 0.00 | 29 | 1018.2 |
| 20260510002422 | 71 | 307 | 2.6 | 7.0 | 0.00 | 0.00 | 0.00 | 31 | 1018.2 |
| 20260510001918 | 71 | 323 | 1.7 | 4.3 | 0.00 | 0.00 | 0.00 | 31 | 1018.2 |
| 20260510001416 | 70 | 285 | 3.5 | 7.0 | 0.00 | 0.00 | 0.00 | 32 | 1018.5 |
| 20260510000913 | 71 | 297 | 0.0 | 2.6 | 0.00 | 0.00 | 0.00 | 29 | 1018.2 |
| 20260510000411 | 71 | 257 | 3.5 | 3.5 | 0.00 | 0.00 | 0.00 | 30 | 1018.3 |
| 20260509235905 | 70 | 328 | 2.6 | 4.3 | 0.00 | 0.00 | 0.00 | 29 | 1018.5 |
| 20260509235403 | 70 | 0 | 1.7 | 7.0 | 0.00 | 0.00 | 0.00 | 30 | 1018.2 |
| 20260509234858 | 71 | 10 | 2.6 | 3.5 | 0.00 | 0.00 | 0.00 | 31 | 1018.1 |
| 20260509234356 | 71 | 283 | 0.0 | 7.8 | 0.00 | 0.00 | 0.00 | 30 | 1018.2 |
| 20260509233854 | 72 | 234 | 2.6 | 6.1 | 0.00 | 0.00 | 0.00 | 31 | 1018.2 |
| 20260509233351 | 71 | 282 | 5.2 | 6.1 | 0.00 | 0.00 | 0.00 | 31 | 1018.5 |
| 20260509232846 | 71 | 79 | 4.3 | 4.3 | 0.00 | 0.00 | 0.00 | 30 | 1018.3 |
| 20260509232345 | 71 | 273 | 2.6 | 9.6 | 0.00 | 0.00 | 0.00 | 31 | 1018.5 |
| 20260509231840 | 70 | 90 | 0.0 | 3.5 | 0.00 | 0.00 | 0.00 | 30 | 1018.7 |
| 20260509231337 | 69 | 94 | 2.6 | 3.5 | 0.00 | 0.00 | 0.00 | 30 | 1018.3 |
| 20260509230835 | 69 | 353 | 5.2 | 6.1 | 0.00 | 0.00 | 0.00 | 30 | 1018.3 |
| 20260509230332 | 70 | 225 | 1.7 | 6.1 | 0.00 | 0.00 | 0.00 | 30 | 1018.7 |
| 20260509225827 | 70 | 347 | 2.6 | 4.3 | 0.00 | 0.00 | 0.00 | 30 | 1018.8 |
| 20260509225324 | 71 | 15 | 0.0 | 4.3 | 0.00 | 0.00 | 0.00 | 32 | 1018.8 |
| 20260509224821 | 70 | 180 | 0.0 | 7.0 | 0.00 | 0.00 | 0.00 | 30 | 1019.0 |
| 20260509224316 | 69 | 16 | 0.0 | 2.6 | 0.00 | 0.00 | 0.00 | 32 | 1019.0 |
| 20260509223813 | 70 | 282 | 7.8 | 7.8 | 0.00 | 0.00 | 0.00 | 32 | 1019.0 |
| 20260509223310 | 69 | 310 | 3.5 | 7.0 | 0.00 | 0.00 | 0.00 | 35 | 1019.1 |
| 20260509222807 | 71 | 270 | 2.6 | 7.8 | 0.00 | 0.00 | 0.00 | 33 | 1018.9 |
| 20260509222306 | 71 | 234 | 0.0 | 4.3 | 0.00 | 0.00 | 0.00 | 35 | 1019.0 |
| 20260509221758 | 69 | 141 | 2.6 | 7.0 | 0.00 | 0.00 | 0.00 | 32 | 1019.0 |
| 20260509221256 | 69 | 46 | 3.5 | 4.3 | 0.00 | 0.00 | 0.00 | 31 | 1019.0 |
| 20260509220751 | 69 | 319 | 0.0 | 5.2 | 0.00 | 0.00 | 0.00 | 34 | 1019.1 |
| 20260509220248 | 69 | 343 | 3.5 | 6.1 | 0.00 | 0.00 | 0.00 | 33 | 1019.1 |
| 20260509215743 | 69 | 225 | 2.6 | 7.0 | 0.00 | 0.00 | 0.00 | 32 | 1019.1 |
| 20260509215240 | 68 | 267 | 3.5 | 6.1 | 0.00 | 0.00 | 0.00 | 33 | 1019.3 |
| 20260509214737 | 69 | 323 | 9.6 | 10.4 | 0.00 | 0.00 | 0.00 | 34 | 1019.5 |
| 20260509214234 | 69 | 243 | 2.6 | 6.1 | 0.00 | 0.00 | 0.00 | 35 | 1019.2 |
| 20260509213731 | 68 | 338 | 2.6 | 7.8 | 0.00 | 0.00 | 0.00 | 34 | 1019.7 |
| 20260509213226 | 68 | 357 | 2.6 | 6.1 | 0.00 | 0.00 | 0.00 | 34 | 1019.5 |
| 20260509212724 | 69 | 347 | 0.0 | 3.5 | 0.00 | 0.00 | 0.00 | 33 | 1019.6 |
| 20260509212221 | 68 | 96 | 1.7 | 7.0 | 0.00 | 0.00 | 0.00 | 34 | 1019.3 |
| 20260509211717 | 69 | 346 | 3.5 | 5.2 | 0.00 | 0.00 | 0.00 | 34 | 1019.8 |
| 20260509211214 | 69 | 306 | 0.0 | 2.6 | 0.00 | 0.00 | 0.00 | 34 | 1019.6 |
| 20260509210710 | 68 | 282 | 1.7 | 3.5 | 0.00 | 0.00 | 0.00 | 36 | 1019.7 |
| 20260509210208 | 68 | 262 | 3.5 | 6.1 | 0.00 | 0.00 | 0.00 | 36 | 1019.7 |
| 20260509205707 | 67 | 252 | 3.5 | 7.0 | 0.00 | 0.00 | 0.00 | 35 | 1019.5 |
| 20260509205207 | 68 | 337 | 2.6 | 4.3 | 0.00 | 0.00 | 0.00 | 34 | 1019.7 |
| 20260509204703 | 67 | 198 | 0.0 | 6.1 | 0.00 | 0.00 | 0.00 | 35 | 1019.6 |
| 20260509204159 | 68 | 314 | 4.3 | 6.1 | 0.00 | 0.00 | 0.00 | 36 | 1019.7 |
| 20260509203655 | 66 | 15 | 5.2 | 10.4 | 0.00 | 0.00 | 0.00 | 34 | 1019.9 |
| 20260509203154 | 66 | 190 | 0.0 | 4.3 | 0.00 | 0.00 | 0.00 | 34 | 1019.9 |
| 20260509202649 | 66 | 292 | 3.5 | 10.4 | 0.00 | 0.00 | 0.00 | 34 | 1020.0 |
| 20260509202144 | 67 | 17 | 5.2 | 7.0 | 0.00 | 0.00 | 0.00 | 35 | 1019.9 |
| 20260509201640 | 67 | 326 | 2.6 | 4.3 | 0.00 | 0.00 | 0.00 | 35 | 1019.9 |
| 20260509201137 | 66 | 258 | 2.6 | 7.0 | 0.00 | 0.00 | 0.00 | 36 | 1020.1 |
| 20260509200633 | 67 | 301 | 4.3 | 4.3 | 0.00 | 0.00 | 0.00 | 37 | 1020.0 |
| 20260509200129 | 67 | 237 | 1.7 | 4.3 | 0.00 | 0.00 | 0.00 | 39 | 1019.9 |
| 20260509195625 | 65 | 60 | 2.6 | 9.6 | 0.00 | 0.00 | 0.00 | 35 | 1020.0 |
| 20260509195120 | 66 | 318 | 2.6 | 8.7 | 0.00 | 0.00 | 0.00 | 36 | 1019.9 |
| 20260509194619 | 65 | 6 | 0.9 | 7.8 | 0.00 | 0.00 | 0.00 | 35 | 1020.1 |
| 20260509194117 | 64 | 203 | 0.0 | 9.6 | 0.00 | 0.00 | 0.00 | 36 | 1020.1 |
| 20260509193612 | 65 | 261 | 0.0 | 4.3 | 0.00 | 0.00 | 0.00 | 36 | 1019.9 |
| 20260509193108 | 65 | 338 | 2.6 | 3.5 | 0.00 | 0.00 | 0.00 | 36 | 1020.2 |
| 20260509192605 | 63 | 180 | 0.0 | 6.1 | 0.00 | 0.00 | 0.00 | 36 | 1020.2 |
| 20260509192100 | 64 | 61 | 4.3 | 6.1 | 0.00 | 0.00 | 0.00 | 36 | 1020.3 |
| 20260509191555 | 64 | 43 | 3.5 | 5.2 | 0.00 | 0.00 | 0.00 | 37 | 1020.5 |
| 20260509191051 | 64 | 290 | 1.7 | 4.3 | 0.00 | 0.00 | 0.00 | 39 | 1020.3 |
| 20260509190548 | 64 | 330 | 4.3 | 5.2 | 0.00 | 0.00 | 0.00 | 39 | 1020.3 |
| 20260509190046 | 64 | 300 | 1.7 | 4.3 | 0.00 | 0.00 | 0.00 | 37 | 1020.5 |
| 20260509185543 | 64 | 268 | 5.2 | 5.2 | 0.00 | 0.00 | 0.00 | 37 | 1020.7 |
| 20260509185039 | 64 | 288 | 1.7 | 6.1 | 0.00 | 0.00 | 0.00 | 38 | 1020.3 |
| 20260509184538 | 64 | 48 | 1.7 | 3.5 | 0.00 | 0.00 | 0.00 | 36 | 1020.3 |
| 20260509184033 | 64 | 180 | 0.9 | 3.5 | 0.00 | 0.00 | 0.00 | 35 | 1020.6 |
| 20260509183529 | 62 | 207 | 2.6 | 4.3 | 0.00 | 0.00 | 0.00 | 36 | 1020.6 |
| 20260509183025 | 62 | 165 | 0.0 | 5.2 | 0.00 | 0.00 | 0.00 | 37 | 1020.6 |
| 20260509182521 | 62 | 315 | 3.5 | 7.0 | 0.00 | 0.00 | 0.00 | 38 | 1020.6 |
| 20260509182019 | 62 | 308 | 4.3 | 4.3 | 0.00 | 0.00 | 0.00 | 39 | 1020.5 |
| 20260509181517 | 62 | 274 | 4.3 | 6.1 | 0.00 | 0.00 | 0.00 | 39 | 1020.5 |
| 20260509181014 | 64 | 296 | 2.6 | 2.6 | 0.00 | 0.00 | 0.00 | 37 | 1020.6 |
| 20260509180509 | 62 | 207 | 2.6 | 3.5 | 0.00 | 0.00 | 0.00 | 39 | 1020.6 |
| 20260509180008 | 63 | 201 | 1.7 | 2.6 | 0.00 | 0.00 | 0.00 | 38 | 1020.7 |
| 20260509175502 | 61 | 245 | 1.7 | 2.6 | 0.00 | 0.00 | 0.00 | 40 | 1020.7 |
| 20260509174959 | 60 | 340 | 2.6 | 5.2 | 0.00 | 0.00 | 0.00 | 39 | 1020.9 |
| 20260509174456 | 61 | 17 | 2.6 | 2.6 | 0.00 | 0.00 | 0.00 | 38 | 1020.8 |
| 20260509173950 | 60 | 226 | 5.2 | 6.1 | 0.00 | 0.00 | 0.00 | 39 | 1021.0 |
| 20260509173445 | 60 | 0 | 2.6 | 6.1 | 0.00 | 0.00 | 0.00 | 39 | 1021.0 |
| 20260509172942 | 60 | 341 | 1.7 | 3.5 | 0.00 | 0.00 | 0.00 | 41 | 1020.7 |
| 20260509172439 | 59 | 285 | 2.6 | 6.1 | 0.00 | 0.00 | 0.00 | 39 | 1020.9 |
| 20260509171934 | 60 | 307 | 4.3 | 4.3 | 0.00 | 0.00 | 0.00 | 42 | 1020.8 |
| 20260509171431 | 60 | 274 | 1.7 | 5.2 | 0.00 | 0.00 | 0.00 | 39 | 1020.7 |
| 20260509170927 | 60 | 337 | 2.6 | 5.2 | 0.00 | 0.00 | 0.00 | 39 | 1021.0 |
| 20260509170423 | 59 | 270 | 0.0 | 4.3 | 0.00 | 0.00 | 0.00 | 39 | 1020.9 |
| 20260509165918 | 58 | 293 | 2.6 | 3.5 | 0.00 | 0.00 | 0.00 | 43 | 1020.9 |
| 20260509165413 | 59 | 300 | 1.7 | 5.2 | 0.00 | 0.00 | 0.00 | 40 | 1020.9 |
| 20260509164908 | 57 | 311 | 2.6 | 4.3 | 0.00 | 0.00 | 0.00 | 40 | 1020.6 |
| 20260509164405 | 58 | 322 | 2.6 | 4.3 | 0.00 | 0.00 | 0.00 | 42 | 1021.0 |
| 20260509163901 | 58 | 90 | 0.0 | 1.7 | 0.00 | 0.00 | 0.00 | 40 | 1020.9 |
| 20260509163358 | 58 | 50 | 3.5 | 3.5 | 0.00 | 0.00 | 0.00 | 40 | 1021.0 |
| 20260509162857 | 57 | 291 | 2.6 | 3.5 | 0.00 | 0.00 | 0.00 | 40 | 1020.9 |
| 20260509162356 | 56 | 90 | 0.0 | 4.3 | 0.00 | 0.00 | 0.00 | 42 | 1020.8 |
| 20260509161852 | 57 | 66 | 1.7 | 2.6 | 0.00 | 0.00 | 0.00 | 43 | 1021.0 |
| 20260509161348 | 56 | 128 | 1.7 | 4.3 | 0.00 | 0.00 | 0.00 | 43 | 1021.2 |
| 20260509160844 | 55 | 99 | 1.7 | 3.5 | 0.00 | 0.00 | 0.00 | 46 | 1020.9 |
| 20260509160340 | 54 | 121 | 1.7 | 2.6 | 0.00 | 0.00 | 0.00 | 45 | 1021.1 |
| 20260509155835 | 54 | 57 | 1.7 | 3.5 | 0.00 | 0.00 | 0.00 | 47 | 1021.2 |
| 20260509155332 | 54 | 33 | 1.7 | 2.6 | 0.00 | 0.00 | 0.00 | 49 | 1021.0 |
| 20260509154828 | 53 | 12 | 0.9 | 2.6 | 0.00 | 0.00 | 0.00 | 52 | 1021.1 |
| 20260509154325 | 54 | 63 | 1.7 | 1.7 | 0.00 | 0.00 | 0.00 | 51 | 1020.8 |
| 20260509153822 | 53 | 41 | 1.7 | 2.6 | 0.00 | 0.00 | 0.00 | 52 | 1021.1 |
| 20260509153319 | 53 | 327 | 1.7 | 1.7 | 0.00 | 0.00 | 0.00 | 51 | 1021.1 |
| 20260509152815 | 55 | 343 | 2.6 | 3.5 | 0.00 | 0.00 | 0.00 | 50 | 1021.1 |
| 20260509152311 | 53 | 294 | 0.0 | 3.5 | 0.00 | 0.00 | 0.00 | 54 | 1020.8 |
| 20260509151809 | 52 | 278 | 0.0 | 2.6 | 0.00 | 0.00 | 0.00 | 56 | 1021.0 |
| 20260509151305 | 53 | 357 | 2.6 | 2.6 | 0.00 | 0.00 | 0.00 | 56 | 1020.9 |
| 20260509150804 | 53 | 29 | 0.9 | 2.6 | 0.00 | 0.00 | 0.00 | 56 | 1020.8 |
| 20260509150301 | 52 | 321 | 1.7 | 3.5 | 0.00 | 0.00 | 0.00 | 59 | 1020.9 |
| 20260509145758 | 51 | 109 | 1.7 | 2.6 | 0.00 | 0.00 | 0.00 | 58 | 1020.7 |
| 20260509145258 | 50 | 45 | 1.7 | 2.6 | 0.00 | 0.00 | 0.00 | 62 | 1020.8 |
| 20260509144754 | 49 | 300 | 0.0 | 2.6 | 0.00 | 0.00 | 0.00 | 62 | 1020.8 |
| 20260509144251 | 49 | 90 | 0.9 | 2.6 | 0.00 | 0.00 | 0.00 | 62 | 1020.8 |
| 20260509143748 | 49 | 315 | 1.7 | 2.6 | 0.00 | 0.00 | 0.00 | 62 | 1020.8 |
| 20260509143246 | 50 | 102 | 2.6 | 2.6 | 0.00 | 0.00 | 0.00 | 59 | 1020.8 |
| 20260509142742 | 48 | 285 | 0.0 | 0.9 | 0.00 | 0.00 | 0.00 | 63 | 1020.9 |
| 20260509142238 | 48 | 0 | 2.6 | 2.6 | 0.00 | 0.00 | 0.00 | 63 | 1020.8 |
| 20260509141734 | 47 | 11 | 0.9 | 3.5 | 0.00 | 0.00 | 0.00 | 63 | 1020.9 |
| 20260509141231 | 47 | 113 | 2.6 | 3.5 | 0.00 | 0.00 | 0.00 | 63 | 1020.5 |
| 20260509140728 | 46 | 244 | 5.2 | 5.2 | 0.00 | 0.00 | 0.00 | 64 | 1020.9 |
| 20260509140225 | 46 | 68 | 2.6 | 4.3 | 0.00 | 0.00 | 0.00 | 65 | 1020.5 |
| 20260509135722 | 47 | 82 | 0.0 | 3.5 | 0.00 | 0.00 | 0.00 | 63 | 1020.3 |
| 20260509135220 | 46 | 274 | 2.6 | 4.3 | 0.00 | 0.00 | 0.00 | 65 | 1020.3 |
| 20260509134717 | 45 | 73 | 3.5 | 5.2 | 0.00 | 0.00 | 0.00 | 65 | 1020.3 |
| 20260509134214 | 46 | 81 | 1.7 | 2.6 | 0.00 | 0.00 | 0.00 | 63 | 1020.2 |
| 20260509133711 | 45 | 35 | 0.0 | 3.5 | 0.00 | 0.00 | 0.00 | 63 | 1020.3 |
| 20260509133208 | 45 | 106 | 1.7 | 3.5 | 0.00 | 0.00 | 0.00 | 62 | 1020.1 |
| 20260509132707 | 45 | 270 | 2.6 | 4.3 | 0.00 | 0.00 | 0.00 | 64 | 1019.9 |
| 20260509132205 | 44 | 164 | 2.6 | 4.3 | 0.00 | 0.00 | 0.00 | 66 | 1020.1 |
| 20260509131701 | 43 | 112 | 2.6 | 4.3 | 0.00 | 0.00 | 0.00 | 65 | 1019.7 |
| 20260509131158 | 42 | 106 | 0.0 | 2.6 | 0.00 | 0.00 | 0.00 | 67 | 1019.7 |
| 20260509130653 | 43 | 108 | 4.3 | 4.3 | 0.00 | 0.00 | 0.00 | 65 | 1019.8 |
| 20260509130150 | 43 | 103 | 3.5 | 3.5 | 0.00 | 0.00 | 0.00 | 64 | 1019.6 |
| 20260509125647 | 43 | 98 | 1.7 | 3.5 | 0.00 | 0.00 | 0.00 | 64 | 1019.5 |
| 20260509125143 | 43 | 117 | 7.0 | 7.8 | 0.00 | 0.00 | 0.00 | 65 | 1019.5 |
| 20260509124640 | 42 | 110 | 4.3 | 6.1 | 0.00 | 0.00 | 0.00 | 65 | 1019.5 |
| 20260509124137 | 42 | 129 | 5.2 | 7.0 | 0.00 | 0.00 | 0.00 | 67 | 1019.3 |
| 20260509123635 | 42 | 110 | 3.5 | 4.3 | 0.00 | 0.00 | 0.00 | 67 | 1019.3 |
| 20260509123132 | 42 | 127 | 4.3 | 5.2 | 0.00 | 0.00 | 0.00 | 65 | 1019.1 |
| 20260509122627 | 42 | 74 | 1.7 | 4.3 | 0.00 | 0.00 | 0.00 | 64 | 1018.8 |
| 20260509122124 | 41 | 117 | 3.5 | 4.3 | 0.00 | 0.00 | 0.00 | 67 | 1019.0 |
| 20260509121621 | 41 | 118 | 2.6 | 4.3 | 0.00 | 0.00 | 0.00 | 68 | 1018.9 |
| 20260509121119 | 41 | 142 | 1.7 | 1.7 | 0.00 | 0.00 | 0.00 | 67 | 1018.8 |
| 20260509120617 | 41 | 83 | 2.6 | 2.6 | 0.00 | 0.00 | 0.00 | 68 | 1018.7 |
| 20260509120115 | 41 | 110 | 2.6 | 2.6 | 0.00 | 0.00 | 0.00 | 67 | 1018.9 |
| 20260509115612 | 42 | 105 | 0.9 | 2.6 | 0.00 | 0.00 | 0.00 | 67 | 1018.6 |
| 20260509115109 | 41 | 115 | 4.3 | 5.2 | 0.00 | 0.00 | 0.00 | 67 | 1018.7 |
| 20260509114607 | 41 | 106 | 1.7 | 3.5 | 0.00 | 0.00 | 0.00 | 67 | 1018.7 |
| 20260509114106 | 42 | 95 | 1.7 | 1.7 | 0.00 | 0.00 | 0.00 | 66 | 1018.9 |
| 20260509113604 | 42 | 120 | 0.0 | 1.7 | 0.00 | 0.00 | 0.00 | 66 | 1018.7 |
| 20260509113101 | 42 | 107 | 0.0 | 3.5 | 0.00 | 0.00 | 0.00 | 65 | 1018.6 |
| 20260509112557 | 43 | 151 | 1.7 | 1.7 | 0.00 | 0.00 | 0.00 | 63 | 1018.7 |
| 20260509112054 | 43 | 286 | 0.0 | 0.0 | 0.00 | 0.00 | 0.00 | 62 | 1018.6 |
| 20260509111552 | 44 | 74 | 0.0 | 3.5 | 0.00 | 0.00 | 0.00 | 61 | 1018.5 |
| 20260509111048 | 43 | 90 | 0.0 | 4.3 | 0.00 | 0.00 | 0.00 | 61 | 1018.5 |
| 20260509110545 | 44 | 85 | 3.5 | 4.3 | 0.00 | 0.00 | 0.00 | 61 | 1018.6 |
| 20260509110042 | 44 | 103 | 2.6 | 3.5 | 0.00 | 0.00 | 0.00 | 61 | 1018.7 |
| 20260509105541 | 44 | 144 | 1.7 | 2.6 | 0.00 | 0.00 | 0.00 | 59 | 1018.6 |
| 20260509105038 | 43 | 141 | 2.6 | 2.6 | 0.00 | 0.00 | 0.00 | 62 | 1018.5 |
| 20260509104535 | 42 | 130 | 2.6 | 2.6 | 0.00 | 0.00 | 0.00 | 62 | 1018.6 |
| 20260509104032 | 42 | 114 | 2.6 | 2.6 | 0.00 | 0.00 | 0.00 | 62 | 1018.6 |
| 20260509103529 | 43 | 117 | 1.7 | 2.6 | 0.00 | 0.00 | 0.00 | 62 | 1018.5 |
| 20260509103028 | 44 | 106 | 3.5 | 3.5 | 0.00 | 0.00 | 0.00 | 60 | 1018.3 |
| 20260509102524 | 44 | 111 | 2.6 | 2.6 | 0.00 | 0.00 | 0.00 | 58 | 1018.5 |
| 20260509102021 | 44 | 132 | 1.7 | 2.6 | 0.00 | 0.00 | 0.00 | 60 | 1018.5 |
| 20260509101517 | 45 | 135 | 1.7 | 1.7 | 0.00 | 0.00 | 0.00 | 58 | 1018.5 |
| 20260509101015 | 45 | 124 | 1.7 | 3.5 | 0.00 | 0.00 | 0.00 | 57 | 1018.3 |
| 20260509100512 | 47 | 124 | 2.6 | 3.5 | 0.00 | 0.00 | 0.00 | 53 | 1018.5 |
| 20260509100009 | 46 | 63 | 1.7 | 2.6 | 0.00 | 0.00 | 0.00 | 55 | 1018.2 |
| 20260509095505 | 46 | 59 | 2.6 | 6.1 | 0.00 | 0.00 | 0.00 | 55 | 1018.0 |
| 20260509095003 | 45 | 105 | 0.0 | 2.6 | 0.00 | 0.00 | 0.00 | 57 | 1018.1 |
| 20260509094459 | 46 | 65 | 2.6 | 4.3 | 0.00 | 0.00 | 0.00 | 55 | 1018.1 |
| 20260509093956 | 47 | 52 | 4.3 | 7.0 | 0.00 | 0.00 | 0.00 | 53 | 1018.0 |
| 20260509093454 | 46 | 57 | 1.7 | 3.5 | 0.00 | 0.00 | 0.00 | 54 | 1018.0 |
| 20260509092951 | 49 | 94 | 1.7 | 2.6 | 0.00 | 0.00 | 0.00 | 49 | 1018.0 |
| 20260509092449 | 51 | 257 | 2.6 | 7.0 | 0.00 | 0.00 | 0.00 | 46 | 1017.9 |
| 20260509091948 | 46 | 99 | 1.7 | 4.3 | 0.00 | 0.00 | 0.00 | 54 | 1018.0 |